Weather Service Report


824 
ASUS43 KBIS 231510
RWRBIS

NWR BROADCAST TEXT
NATIONAL WEATHER SERVICE BISMARCK ND
1000 AM CDT SUN APR 23 2017

NOTE: "FAIR" INDICATES FEW OR NO CLOUDS BELOW 12,000 FEET WITH NO
SIGNIFICANT WEATHER AND/OR OBSTRUCTIONS TO VISIBILITY.

  
CITY           SKY/WX    TMP DP  RH WIND       PRES   REMARKS
WILLISTON      CLOUDY    31  24  75 E16G25    30.02F WCI  20          
MINOT          LGT SNOW  28  24  85 E14G23    30.11F WCI  17          
MINOT AFB      MIX PCPN  28  24  84 E15       30.11F WCI  16          
BISMARCK       CLOUDY    35  29  78 E23G31    30.03F                  
DICKINSON      CLOUDY    29  26  89 E20       29.93F WCI  16          
GARRISON         N/A     27  25  92 E23G35    30.05F WCI  12          
HETTINGER ARPT CLOUDY    32  31  96 E16       29.92R                  
JAMESTOWN      CLOUDY    31  28  89 E15       30.10F                  
HAZEN          CLOUDY    30  27  86 E13G24    30.05F                  
LINTON         FLURRIES  34  34 100 E24G33    30.00F                  
MANDAN         CLOUDY    32  30  93 E24G31    30.01F WCI  19          
STANLEY        LGT SNOW  27  27 100 E18G29    30.07F WCI  13          
TIOGA          CLOUDY    27  27 100 E28       30.03F WCI  11          
WATFORD CITY   CLOUDY    28  28 100 E20       30.00F WCI  15          
$$
  
CITY           SKY/WX    TMP DP  RH WIND       PRES   REMARKS
GRAND FORKS    CLOUDY    35  24  64 E15       30.21S                  
GRAND FORKS AF FAIR      33  23  67 E16       30.21S                  
DEVILS LAKE    LGT SNOW  28  26  92 E16       30.17F FOG     WCI  16  
FARGO          CLOUDY    36  32  85 E16       30.14F                  
CAVALIER         N/A     32  16  51 E10G16    30.24F                  
GRAFTON        FAIR      34  18  51 E20       30.25F                  
GWINNER        CLOUDY    39  36  87 MISG      30.07F                  
LANGDON        PTSUNNY   32  14  47 E22       30.18F WCI  19          
ROLLA          PTSUNNY   30  10  43 E17G23    30.17F WCI  18          
$$
  
CITY           SKY/WX    TMP DP  RH WIND       PRES   REMARKS
ABERDEEN       CLOUDY    44  37  76 NE16      30.02F                  
MOBRIDGE       PTSUNNY   40  33  76 E21G31    29.92F                  
BUFFALO          N/A     35 N/A N/A NE20      29.81R                  
RAPID CITY     FAIR      51  37  58 S10       29.81F                  
GLASGOW        CLOUDY    35  31  85 E23G31    29.89F                  
SIDNEY         CLOUDY    35  30  82 E16       29.98F                  
WOLF POINT     CLOUDY    36  31  82 E20G28    29.95F                  
GLENDIVE       CLOUDY    36  32  85 E13       29.92F                  
MILES CITY     CLOUDY    42  38  85 NE12      29.84F                  
BAKER          FOG       33  32  96 E18       29.89F VSB 3/4          
$$
  
CITY           SKY/WX    TMP DP  RH WIND       PRES   REMARKS
BILLINGS       CLOUDY    47  40  76 CALM      29.79F                  
GREAT FALLS    CLOUDY    42  40  92 NW5       29.78F                  
REGINA         PTSUNNY   34  21  60 SE22      30.08S                  
ESTEVAN        CLOUDY    30  16  55 E18G31    30.09F WCI  18          
$$

  


895 
ASUS43 KBIS 231510
RWRND 

NORTH DAKOTA REGIONAL WEATHER ROUNDUP
NATIONAL WEATHER SERVICE BISMARCK ND
1000 AM CDT SUN APR 23 2017

NOTE: "FAIR" INDICATES FEW OR NO CLOUDS BELOW 12,000 FEET WITH NO
SIGNIFICANT WEATHER AND/OR OBSTRUCTIONS TO VISIBILITY.


NDZ001>003-009>011-017-231600-
NORTHWEST NORTH DAKOTA
  
CITY           SKY/WX    TMP DP  RH WIND       PRES   REMARKS
WILLISTON      CLOUDY    31  24  75 E16G25    30.02F WCI  20          
MINOT          LGT SNOW  28  24  85 E14G23    30.11F WCI  17          
MINOT AFB      MIX PCPN  28  24  84 E15       30.11F WCI  16          
$$
 
NDZ018>021-031>035-040>046-231600-
SOUTHWEST NORTH DAKOTA
  
CITY           SKY/WX    TMP DP  RH WIND       PRES   REMARKS
BISMARCK       CLOUDY    35  29  78 E23G31    30.03F                  
DICKINSON      CLOUDY    29  26  89 E20       29.93F WCI  16          
GARRISON         N/A     27  25  92 E23G35    30.05F WCI  12          
HETTINGER ARPT CLOUDY    32  31  96 E16       29.92R                  
$$
 
NDZ004>008-012>016-024-026-027-054-231600-
NORTHEAST NORTH DAKOTA
  
CITY           SKY/WX    TMP DP  RH WIND       PRES   REMARKS
GRAND FORKS    CLOUDY    35  24  64 E15       30.21S                  
GRND FRKS AFB  CLOUDY    33  23  67 E16       30.21S                  
DEVILS LAKE    LGT SNOW  28  26  92 E16       30.17F FOG     WCI  16  
$$
 
NDZ022-023-025-028>030-036>039-047>053-231600-
SOUTHEAST NORTH DAKOTA
  
CITY           SKY/WX    TMP DP  RH WIND       PRES   REMARKS
FARGO          CLOUDY    36  32  85 E16       30.14F                  
JAMESTOWN      CLOUDY    31  28  89 E15       30.10F                  
$$ 

  

Return to Home page


Western Regional Climate Center, wrcc@dri.edu